Weather History for Provo, UT

Change the Weather History Date:

Tuesday, November 13, 2012

  Actual Average Record
Temperature  
Mean Temperature 26 °F -  
Max Temperature 35 °F 46 °F 69 °F (1990)
Min Temperature 17 °F 29 °F 17 °F (2000)
Degree Days  
Heating Degree Days 39    
Moisture  
Dew Point 21 °F    
Average Humidity 87    
Maximum Humidity 100    
Minimum Humidity 65    
Precipitation  
Precipitation 0.00 in - - ()
Sea Level Pressure  
Sea Level Pressure 30.36 in    
Wind  
Wind Speed 3 mph (ESE)    
Max Wind Speed 6 mph    
Max Gust Speed -    
Visibility 11 miles    
Events      
Averages and records for this station are not official NWS values.
T = Trace of Precipitation, MM = Missing Value Source: NWS Daily Summary

Daily Weather History Graph

Daily Weather History Graph

Search for Another Location

Airport:

Trip Planner

Search our weather history database for the weather conditions in past years. The results will help you decide how hot, cold, wet, or windy it might be!

Date:

Astronomy

Nov. 13, 2012 Rise Set
Actual Time 7:10 AM MST 5:11 PM MST
Civil Twilight 6:41 AM MST 5:40 PM MST
Nautical Twilight 6:09 AM MST 6:12 PM MST
Astronomical Twilight 5:37 AM MST 6:45 PM MST
Moon 6:53 AM MST (11/13) 5:07 PM MST (11/13)
Length of Visible Light 10h 58m
Length of Day
10h 00m
Waning Crescent, 0% of the Moon is Illuminated
Nov 13
Waning Crescent
Nov 13
New
Nov 20
First Quarter
Nov 28
Full
Dec 6
Last Quarter

Hourly Weather History & Observations

Time (MST) Temp. Windchill Dew Point Humidity Pressure Visibility Wind Dir Wind Speed Gust Speed Precip Events Conditions
12:15 AM 24.8 °F 19.1 °F 19.4 °F 80% 30.39 in 10.0 mi SE 4.6 mph - N/A   Scattered Clouds
12:35 AM 23.0 °F 17.0 °F 19.4 °F 86% 30.40 in 10.0 mi SSE 4.6 mph - N/A   Clear
12:55 AM 21.2 °F 13.6 °F 19.4 °F 93% 30.39 in 10.0 mi SSE 5.8 mph - N/A   Clear
1:15 AM 23.0 °F - 19.4 °F 86% 30.39 in 10.0 mi Calm Calm - N/A   Clear
1:35 AM 23.0 °F - 19.4 °F 86% 30.38 in 10.0 mi Calm Calm - N/A   Clear
1:55 AM 21.2 °F - 19.4 °F 93% 30.38 in 10.0 mi Calm Calm - N/A   Clear
2:15 AM 21.2 °F 16.4 °F 19.4 °F 93% 30.38 in 10.0 mi NE 3.5 mph - N/A   Clear
2:35 AM 21.2 °F 16.4 °F 21.2 °F 100% 30.39 in 10.0 mi NE 3.5 mph - N/A   Clear
2:55 AM 21.2 °F 16.4 °F 21.2 °F 100% 30.40 in 10.0 mi NE 3.5 mph - N/A   Clear
3:15 AM 21.2 °F 16.4 °F 19.4 °F 93% 30.40 in 10.0 mi East 3.5 mph - N/A   Clear
3:35 AM 21.2 °F 14.9 °F 19.4 °F 93% 30.40 in 10.0 mi SE 4.6 mph - N/A   Clear
3:55 AM 19.4 °F 12.8 °F 17.6 °F 93% 30.39 in 10.0 mi SE 4.6 mph - N/A   Clear
4:15 AM 19.4 °F 14.3 °F 17.6 °F 93% 30.40 in 10.0 mi ESE 3.5 mph - N/A   Clear
4:35 AM 19.4 °F - 17.6 °F 93% 30.40 in 10.0 mi Calm Calm - N/A   Clear
5:15 AM 19.4 °F - 17.6 °F 93% 30.41 in 10.0 mi Calm Calm - N/A   Clear
5:35 AM 21.2 °F 14.9 °F 19.4 °F 93% 30.41 in 10.0 mi SSE 4.6 mph - N/A   Clear
5:55 AM 17.6 °F 12.3 °F 14.0 °F 86% 30.40 in 10.0 mi East 3.5 mph - N/A   Clear
6:15 AM 21.2 °F - 21.2 °F 100% 30.40 in 10.0 mi Calm Calm - N/A   Clear
6:35 AM 21.2 °F 16.4 °F 19.4 °F 93% 30.40 in 9.0 mi ESE 3.5 mph - N/A   Clear
6:50 AM 19.4 °F - 19.4 °F 100% 30.40 in 15.0 mi Calm Calm - N/A   Partly Cloudy
7:55 AM 19.4 °F 14.3 °F 15.8 °F 86% 30.41 in 15.0 mi East 3.5 mph - N/A   Partly Cloudy
8:56 AM 24.8 °F - 23.0 °F 93% 30.41 in 15.0 mi Calm Calm - N/A   Clear
9:47 AM 28.4 °F 24.6 °F 21.2 °F 74% 30.41 in 15.0 mi SE 3.5 mph - N/A   Partly Cloudy
10:48 AM 30.2 °F 26.7 °F 23.0 °F 75% 30.41 in 15.0 mi SSE 3.5 mph - N/A   Partly Cloudy
11:47 AM 32.0 °F 27.5 °F 23.0 °F 69% 30.39 in 15.0 mi SSE 4.6 mph - N/A   Partly Cloudy
12:50 PM 33.8 °F 28.6 °F 24.8 °F 70% 30.35 in 15.0 mi Variable 5.8 mph - N/A   Partly Cloudy
3:50 PM 35.6 °F 31.7 °F 24.8 °F 65% 30.32 in 15.0 mi Variable 4.6 mph - N/A   Scattered Clouds
4:54 PM 33.8 °F 29.6 °F 23.0 °F 65% 30.31 in 15.0 mi Variable 4.6 mph - N/A   Scattered Clouds
6:54 PM 28.4 °F 23.3 °F 23.0 °F 80% 30.21 in 15.0 mi Variable 4.6 mph - N/A   Scattered Clouds
7:54 PM 28.4 °F - 24.8 °F 86% 30.30 in 15.0 mi Calm Calm - N/A   Scattered Clouds
8:55 PM 28.4 °F - 24.8 °F 86% 30.30 in 15.0 mi Calm Calm - N/A   Scattered Clouds
9:15 PM 26.6 °F - 24.8 °F 93% 30.31 in 10.0 mi Calm Calm - N/A   Clear
9:35 PM 26.6 °F 22.6 °F 23.0 °F 86% 30.30 in 10.0 mi ESE 3.5 mph - N/A   Clear
9:55 PM 24.8 °F 17.9 °F 19.4 °F 80% 30.30 in 10.0 mi SSE 5.8 mph - N/A   Clear
10:15 PM 26.6 °F 22.6 °F 21.2 °F 80% 30.30 in 10.0 mi SE 3.5 mph - N/A   Clear
10:35 PM 24.8 °F 20.5 °F 23.0 °F 93% 30.30 in 7.0 mi ESE 3.5 mph - N/A   Clear
10:55 PM 26.6 °F - 24.8 °F 93% 30.30 in 10.0 mi Calm Calm - N/A   Clear
11:15 PM 26.6 °F 21.2 °F 24.8 °F 93% 30.30 in 6.0 mi East 4.6 mph - N/A   Clear
11:35 PM 26.6 °F - 24.8 °F 93% 30.29 in 10.0 mi Calm Calm - N/A   Clear
11:55 PM 26.6 °F - 21.2 °F 80% 30.29 in 10.0 mi Calm Calm - N/A   Clear